Regional Weather Roundup
Issued by NWS

Home | Current Version | Previous Version | Graphics & Text | Print | Product List | Glossary On
Versions: 1 2 3 4 5 6 7 8 9 10 11 12 13 14 15 16 17 18 19 20 21 22 23 24 25 26 27 28 29 30 31 32 33 34 35 36 37 38 39 40 41 42 43 44 45 46 47 48 49 50
000
ASUS43 KBIS 290320
RWRND

NORTH DAKOTA REGIONAL WEATHER ROUNDUP
NATIONAL WEATHER SERVICE BISMARCK ND
1000 PM CDT SAT MAR 28 2015

NOTE: "FAIR" INDICATES FEW OR NO CLOUDS BELOW 12,000 FEET WITH NO
SIGNIFICANT WEATHER AND/OR OBSTRUCTIONS TO VISIBILITY.


NDZ001>003-009>011-017-290400-
NORTHWEST NORTH DAKOTA

CITY           SKY/WX    TMP DP  RH WIND       PRES   REMARKS
WILLISTON      LGT RAIN  52  42  69 W29G36    29.61R
MINOT          CLOUDY    54  47  77 W18G24    29.49R
MINOT AFB      DRIZZLE   53  52  99 NW20G26   29.47R
$$

NDZ018>021-031>035-040>046-290400-
SOUTHWEST NORTH DAKOTA

CITY           SKY/WX    TMP DP  RH WIND       PRES   REMARKS
BISMARCK       LGT RAIN  55  52  89 W7        29.61R
DICKINSON      MOCLDY    48  39  71 W22       29.67R
GARRISON         N/A     53  48  83 W22G31    29.54R
HETTINGER ARPT MOCLDY    48  40  73 NW25      29.74R
$$

NDZ004>008-012>016-024-026-027-054-290400-
NORTHEAST NORTH DAKOTA

CITY           SKY/WX    TMP DP  RH WIND       PRES   REMARKS
GRAND FORKS    CLOUDY    46  30  53 S21G31    29.56F
GRND FRKS AFB  CLOUDY    47  31  53 S22G35    29.56F
DEVILS LAKE    CLOUDY    45  37  76 S16       29.50F
$$

NDZ022-023-025-028>030-036>039-047>053-290400-
SOUTHEAST NORTH DAKOTA

CITY           SKY/WX    TMP DP  RH WIND       PRES   REMARKS
FARGO          LGT RAIN  45  30  55 SE28G38   29.64F
JAMESTOWN      CLOUDY    49  32  52 W29G44    29.70R
$$



USA.gov is the U.S. government's official web portal to all federal, state and local government web resources and services.